{"data":{"norad_id":69000,"intl_designator":"2026-100W","name":"GEMINI-POLLUX","alt_names":[],"object_type":"PAYLOAD","status":"ACTIVE","operator":null,"country":"ROC","launch_date":"2026-05-03","launch_site_code":"AFWTR","launch_vehicle":null,"mission":null,"orbit_class":"UNKNOWN","rcs_meters":null,"size_class":null,"mass_kg":null,"dimensions":null,"purposes":[],"wikipedia_slug":null,"has_3d_model":false,"image_url":null,"decayed_at":null,"tle_current":{"epoch":"2026-09-19T12:46:20.912736Z","epoch_age_seconds":103028,"freshness":"FRESH","line1":"1 69000U 26100W   26262.53218649  .00001650  00000+0  16602-3 0  9999","line2":"2 69000  97.7190 158.2202 0000976  54.7971 305.3340 14.92533090 20775","mean_motion":14.9253309,"eccentricity":9.76e-5,"inclination_deg":97.719,"raan_deg":158.2202,"arg_perigee_deg":54.7971,"mean_anomaly_deg":305.334,"bstar":0.00016602,"rev_number":2077,"period_min":96.480273010229,"perigee_km":589.36025892317,"apogee_km":590.72044714248,"semimajor_km":6968.1773530328,"source":"CELESTRAK","updated_at":"2026-09-20T09:00:24.625680Z"}}}